GLOBALSTAR M076

Last updated on Mon Sep 21 2026 00:03:12 GMT+0000 (Coordinated Universal Time)

1 37190U 10054C 26263.47206233 -.00000107 00000+0 -19111-4 0 9992 2 37190 52.0021 178.0725 0000341 59.3370 112.5806 12.62263756734903
UTC large
Height (km)
Speed (km/s)
/
Latitude / Longitude
Inclination (degrees)
Orbital Period (minutes)
Azimuth
Elevation
Range (km)
Doppler Factor

Next 0 passes for location: London (51.5072 / 0.1276)

No passes found over London.
GLOBALSTAR M076